Location: Napier
(39.4830°S, 176.9170°E)
Time: 20:11:54
(UTC+13:00)

Cosmos 1709 Rocket - Pass Details

Date: 24 January 2019
Orbit: 949 x 1001 km, 82.9° (Epoch: 21 February)

Event Time Altitude Azimuth Distance (km) Brightness Sun altitude
Exits shadow 23:15:14 51° 23° (NNE) 1,224 4.1 -24.0°
Maximum altitude 23:16:48 71° 86° (E) 1,042 3.9 -24.2°
Drops below altitude 10° 23:23:03 10° 168° (SSE) 2,743 6.9 -24.8°
Sets 23:25:34 0° 170° (S) 3,689 7.7 -25.1°
